Location: ?????
(32.7281°N, 34.9563°E)
Time: 18:16:59
(UTC+00:00)

CZ-4 R/B - Pass Details

Date: 29 October 2020
Orbit: 532 x 598 km, 97.7° (Epoch: 30 November)

Event Time Altitude Azimuth Distance (km) Brightness Sun altitude
Rises 15:44:03 0° 144° (SE) 2,708 4.6 -11.6°
Reaches altitude 10° 15:46:24 10° 132° (SE) 1,808 3.6 -12.0°
Maximum altitude 15:49:44 28° 73° (ENE) 1,040 2.1 -12.7°
Drops below altitude 10° 15:53:03 10° 14° (NNE) 1,796 3.7 -13.4°
Sets 15:55:22 0° 2° (N) 2,685 4.7 -13.9°
